STARLINK-5157 (53972 NORAD) Tracking and Keplerian Element Data

This shows tracking and keplerian element data for the satellite.

Feedback or suggestion? Click here.




ElementValue
Catalog53972
NameSTARLINK-5157
Epoch Orbit762
Epoch Day325.25001157
Epoch Year2022
RAAN226.5003
Inclination53.2167
Eccentricity0.0001285
Argument of Perigee75.592
Mean Anonmoly26.7343
Mean Motion15.22910161
Decay Rate-0.0116254
L11 53972U 22125J 22325.25001157 -.01162540 00000+0 -53100-1 0 9993
L22 53972 53.2167 226.5003 0001285 75.5920 26.7343 15.22910161 7622



Live tracking and technical data element details for STARLINK-5157 (NORAD 53972). STARLINK-5157 can be tracked NOW for your location showing map with azimuth and elevation plus other details from your city location.







IsCatalogInMostPopularTable: catalog: 53972, numindb: 3
Update: records affected: 1



GetName: 53972 STARLINK-5157

Hit Count: updated at: Fri, 09 Dec 2022 18:57:01 GMT